Home > Weather > Timmins > Past weeks

Flag for Canada Weather for the Past 2 Weeks in Timmins, Ontario, Canada

Now
25 °F

Passing clouds.


Feels Like: 20 °F
Forecast: 21 / 49 °F
Wind: 3 mph from Northeast

Location: Timmins

Current Time: Apr 29, 2016 at 6:07:05 AM

Latest Report: Apr 29, 2016 at 5:00 AM


Visibility: 15 mi

Pressure: 30.22 "Hg

Humidity: 93%

Dew Point: 23 °F

Location of TimminsLocation

Historic Weather in Timmins — Graph

°F

Timmins Temperature Yesterday

Maximum temperature yesterday: 45 °F (at 4:00 PM)
Minimum temperature yesterday: 21 °F (at 3:00 AM)
Average temperature yesterday: 34 °F

High & Low Weather Summary for the Past Weeks

 TemperatureHumidityPressure
High68 °F (Apr 20, 5:00 PM)100% (Apr 18, 2:00 PM)30.55 "Hg (Apr 18, 2:00 PM)
Low14 °F (Apr 23, 6:00 AM)22% (Apr 24, 4:00 PM)29.84 "Hg (Apr 21, 5:00 PM)
Average38 °F58%30.23 "Hg
* Reported Apr 14 5:00 AM — Apr 29 5:00 AM, Timmins, Weather by CustomWeather, © 2016

Note: Actual official high and low records may vary slightly from our data, if they occured in-between our weather recording intervals... More about our weather records

Advertising

Timmins Weather History for the Previous 24 Hours

Scroll right to see more
 ConditionsComfort  
Time TempWeatherWind HumidityBarometerVisibility
5:00 AM
Fri, Apr 29
25 °FPassing clouds.3 mph93%30.22 "Hg15 mi
4:00 AM28 °FClear.5 mph80%30.21 "Hg15 mi
3:00 AM28 °FClear.5 mph80%30.20 "Hg15 mi
2:00 AM28 °FClear.5 mph80%30.20 "Hg15 mi
1:00 AM30 °FPassing clouds.7 mph75%30.21 "Hg15 mi
12:00 AM32 °FPassing clouds.6 mph69%30.22 "Hg15 mi
11:00 PM
Thu, Apr 28
34 °FPassing clouds.5 mph65%30.22 "Hg15 mi
10:00 PM37 °FPassing clouds.5 mph60%30.22 "Hg15 mi
9:00 PM39 °FPartly sunny.3 mph56%30.22 "Hg15 mi
8:00 PM41 °FPartly sunny.6 mph53%30.20 "Hg15 mi
7:00 PM43 °FPartly sunny.5 mph49%30.19 "Hg15 mi
6:00 PM43 °FOvercast.9 mph53%30.19 "Hg15 mi
5:00 PM45 °FOvercast.7 mph49%30.19 "Hg14 mi
4:00 PM45 °FOvercast.6 mph49%30.18 "Hg15 mi
3:00 PM43 °FOvercast.6 mph49%30.18 "Hg15 mi
2:00 PM41 °FMostly cloudy.2 mph53%30.19 "Hg15 mi
1:00 PM41 °FOvercast.8 mph53%30.19 "Hg15 mi
12:00 PM39 °FOvercast.3 mph56%30.19 "Hg15 mi
11:00 AM36 °FOvercast.No wind60%30.19 "Hg15 mi
10:00 AM34 °FOvercast.3 mph65%30.20 "Hg15 mi
9:00 AM30 °FPartly sunny.6 mph75%30.20 "Hg15 mi
8:00 AM28 °FPartly sunny.5 mph80%30.18 "Hg15 mi
7:00 AM27 °FPassing clouds.5 mph80%30.17 "Hg15 mi
6:00 AM25 °FPassing clouds.2 mph86%30.15 "Hg15 mi
Weather by CustomWeather, © 2016

See weather overviewHow to use our weather pages